Weather in Bulava

Russia / Khabarovsk Krai     51°56′16″N   140°24′31″E
temp.,
°C
wind,
m/s
gust,
m/s
humid.,
%
clouds,
%
prec.,
mm/h
press.,
hPa
HPBL,
m
27 february, sat
sat2701:00−22wnw119841 0.0 102820
04:00−23nw119720 0.0 102920
07:00−24w11981 0.0 102920
10:00−18wsw129232 0.0 1029195
13:00−14wsw238585 0.0 1027413
16:00−12sw258693 0.1 1025574
19:00−16s1191100 0.0 102420
22:00−16ese1190100 0.0 102226
28 february, sun
sun2801:00−14ese2391100 0.0 1018100
04:00−13ese2294100 0.3 101396
07:00−12sse1196100 0.6 101124
10:00−11w3692100 0.9 1010438
13:00−9w3685100 0.1 1010657
16:00−8wnw3683100 0.1 1011875
19:00−14n3590100 0.0 1014101
22:00−20nw229195 0.0 101629
1 march, mon
mon101:00−23nw129574 0.0 101720
04:00−25wsw119637 0.0 101921
07:00−25w11981 0.0 102035
10:00−19wnw378933 0.0 1022411
13:00−15wnw587861 0.0 10221270
16:00−15wsw358980 0.2 1022708
19:00−17wsw5990100 0.4 1024472
22:00−21sw2390100 0.5 102576
2 march, tue
tue201:00−23ssw2296100 0.1 102546
04:00−24ssw1199100 0.2 102623
07:00−25ssw2296100 0.1 102757
10:00−24wsw358083 0.1 1027384
13:00−20wsw47731 0.0 1027774
16:00−18wsw467018 0.0 10271334
19:00−22wsw2287100 0.0 102852
22:00−26ssw118177 0.0 102920
3 march, wed
wed301:00−28s11860 0.0 102719
04:00−29s11960 0.0 102719
07:00−30ssw11950 0.0 102619
10:00−24wsw12890 0.0 1025223
13:00−20wsw23810 0.0 1022357
16:00−18ssw12859 0.0 1020293
19:00−21se12880 0.0 101820
22:00−22ese22910 0.0 101625